This demonstration page uses our WeatherBlox Daily Observations layout. Learn more.

36.17497, -115.13722

Hourly Observations for July 13, 2016

Temp ( °F °C ) Dew Point ( °F °C ) Humidity (%) Winds ( mph kmh ) Pressure ( in mb ) Visibility ( mi km ) Precip ( " mm )
12:53 am 00:53 Clear 87 30.6 24 -4.4 10 10 WNW 5 7 29.68 1005 10 16.09344 0 0
1:53 am 01:53 Clear 83 28.3 25 -3.9 12 12 SW 3 6 29.71 1006 10 16.09344 0 0
2:53 am 02:53 Clear 81 27.2 25 -3.9 13 13 N 6 9 29.71 1006 10 16.09344 0 0
3:53 am 03:53 Clear 77 25 25 -3.9 14 14 NNW 5 7 29.77 1008 10 16.09344 0 0
4:53 am 04:53 Clear 77 25 27 -2.8 16 16 W 5 7 29.77 1008 10 16.09344 0 0
5:53 am 05:53 Sunny 76 24.4 26 -3.3 16 16 NNW 6 9 29.8 1009 10 16.09344 0 0
6:53 am 06:53 Sunny 79 26.1 28 -2.2 15 15 N 3 6 29.83 1010 10 16.09344 0 0
7:53 am 07:53 Sunny 85 29.4 28 -2.2 13 13 N 5 7 29.83 1010 10 16.09344 0 0
9:53 am 09:53 Sunny 91 33 27 -3 10 10 SE 10 17 29.8 1009 10 16.09344 0 0
10:53 am 10:53 Sunny 93 34 28 -2 10 10 SSE 6 9 29.83 1010 10 16.09344 0 0
11:53 am 11:53 Sunny 97 36 28 -2 9 9 SSE 6 9 29.8 1009 10 16.09344 0 0
12:53 pm 12:53 Sunny 99 37.2 30 -1.1 9 9 SW 6 9 29.77 1008 10 16.09344 0 0
1:53 pm 13:53 Sunny 102 38.9 25 -3.9 6 6 N 6 9 29.74 1007 10 16.09344 0 0
2:53 pm 14:53 Sunny 102 39 30 -1 8 8 SE 10 17 29.71 1006 10 16.09344 0 0
3:53 pm 15:53 Sunny 103 39.4 30 -1.1 8 8 SE 5 7 29.68 1005 10 16.09344 0 0
4:53 pm 16:53 Sunny 104 40 31 -0.6 8 8 ESE 14 22 29.65 1004 10 16.09344 0 0
5:53 pm 17:53 Sunny 104 40 34 1.1 9 9 ESE 13 20 29.62 1003 10 16.09344 0 0
6:53 pm 18:53 Sunny 102 38.9 33 0.6 9 9 SE 13 20 29.65 1004 10 16.09344 0 0
7:53 pm 19:53 Sunny 99 37.2 32 0 9 9 SE 16 26 29.65 1004 10 16.09344 0 0
8:53 pm 20:53 Clear 97 36.1 32 0 10 10 SE 15 24 29.68 1005 10 16.09344 0 0
9:53 pm 21:53 Clear 95 35 34 1.1 12 12 SW 6 9 29.74 1007 10 16.09344 0 0
10:53 pm 22:53 Clear 93 33.9 34 1.1 12 12 WSW 3 6 29.74 1007 10 16.09344 0 0
11:53 pm 23:53 Clear 89 31.7 35 1.7 15 15 WSW 6 9 29.74 1007 10 16.09344 0 0

Powered by AerisWeather